Location: Carrières
(48.9495°N, 2.0407°E)
Time: 16:00:49
(UTC+00:00)

Tiros 1 despin weight - Pass Details

Date: 18 April 2024
Orbit: 579 x 621 km, 48.2° (Epoch: 17 May)

Event Time Altitude Azimuth Distance (km) Brightness Sun altitude
Rises 14:23:16 0° 242° (WSW) 2,841 ? 40.8°
Reaches altitude 10° 14:25:34 10° 239° (WSW) 1,947 ? 40.5°
Maximum altitude 14:29:57 57° 161° (SSE) 723 ? 39.9°
Drops below altitude 10° 14:34:25 10° 83° (E) 1,979 ? 39.3°
Sets 14:36:46 0° 79° (E) 2,891 ? 39.0°
